This is the latest recevied weather packets stored in our database for station/object WP4NYS-13. If no packets are shown the sender has not sent any weather packets the latest 10 day(s).
| Time | Temp. | Humidity | Pressure | Rain* | Wind** | Luminosity | Snow |
|---|---|---|---|---|---|---|---|
| 1778015590 | 29.44° C | 41% | 1015 hPa | 0 mm | - | - | - |
| 1778015286 | 29.44° C | 41% | 1015 hPa | 0 mm | - | - | - |
| 1778014983 | 29.44° C | 40% | 1015.2 hPa | 0 mm | - | - | - |
| 1778014680 | 30° C | 40% | 1015.3 hPa | 0 mm | - | - | - |
| 1778014379 | 30.56° C | 39% | 1015.4 hPa | 0 mm | - | - | - |
| 1778014075 | 30.56° C | 39% | 1015.2 hPa | 0 mm | - | - | - |
| 1778013773 | 30.56° C | 38% | 1015.2 hPa | 0 mm | - | - | - |
| 1778013470 | 30.56° C | 38% | 1015.4 hPa | 0 mm | - | - | - |
| 1778013167 | 30.56° C | 38% | 1015.4 hPa | 0 mm | - | - | - |
| 1778012862 | 31.11° C | 38% | 1015.5 hPa | 0 mm | - | - | - |
| 1778012559 | 31.67° C | 37% | 1015.3 hPa | 0 mm | - | - | - |
| 1778012255 | 31.67° C | 37% | 1015.4 hPa | 0 mm | - | - | - |
| 1778011953 | 31.67° C | 37% | 1015.6 hPa | 0 mm | - | - | - |
| 1778011651 | 31.67° C | 36% | 1015.5 hPa | 0 mm | - | - | - |
| 1778011348 | 32.22° C | 36% | 1015.6 hPa | 0 mm | - | - | - |
| 1778011043 | 31.67° C | 37% | 1015.6 hPa | 0 mm | - | - | - |
| 1778010741 | 31.67° C | 37% | 1015.7 hPa | 0 mm | - | - | - |
| 1778010438 | 31.67° C | 37% | 1015.8 hPa | 0 mm | - | - | - |
| 1778010135 | 31.11° C | 38% | 1015.8 hPa | 0 mm | - | - | - |
| 1778009831 | 30.56° C | 39% | 1015.8 hPa | 0 mm | - | - | - |
| 1778009528 | 30.56° C | 40% | 1015.8 hPa | 0 mm | - | - | - |
| 1778009227 | 30.56° C | 39% | 1015.9 hPa | 0 mm | - | - | - |
| 1778008923 | 30.56° C | 39% | 1015.9 hPa | 0 mm | - | - | - |
| 1778008622 | 31.11° C | 39% | 1016.1 hPa | 0 mm | - | - | - |
| 1778008320 | 31.11° C | 40% | 1016.1 hPa | 0 mm | - | - | - |
* Rain latest hour (hover to see other rain measurements)
** Current wind speed in m/s (hover to see current wind gust speed)